Header for Extended Forecast Station List Page

Search by: ID | Name | Date | Parm | Value | Avg | % Avg
Sort by: ID | Name | Date | Parm | Value | Avg | % Avg

Enter search or view all records.

Click on id for station plot
#IDNameDateParmValueAvg% Avg
0LYDM8KOOTENAI-LIBBY DAM04-12-2021INFLOW (KAF)4686572782
1LEOI1KOOTENAI-AT LEONIA04-12-2021DISCHARGE (KAF)3685523770
2BFEI1KOOTENAI-AT BONNERS FERRY04-12-2021STAGE (FT)MMM
3FCFM8NF FLATHEAD-NEAR COLUMBIA FALLS04-12-2021DISCHARGE (KAF)1008157264
4WGCM8MF FLATHEAD-NEAR WEST GLACIER04-12-2021DISCHARGE (KAF)1300152985
5HHWM8SF FLATHEAD-HUNGRY HORSE DAM04-12-2021INFLOW (KAF)1537186982
6CFMM8FLATHEAD-AT COLUMBIA FALLS04-12-2021DISCHARGE (KAF)3337408082
7DLGM8CLARK FORK-AT DEER LODGE04-12-2021DISCHARGE (KAF)677590
8DRMM8CLARK FORK-NR DRUMMOND04-12-2021DISCHARGE (KAF)193MM
9RCCM8ROCK CREEK-NEAR CLINTON04-12-2021DISCHARGE (KAF)259252103
10BONM8BLACKFOOT-NEAR BONNER04-12-2021DISCHARGE (KAF)64377883
11ABOM8CLARK FORK-ABOVE MISSOULA04-12-2021DISCHARGE (KAF)1141137483
12BITM8BITTERROOT-NEAR MISSOULA04-12-2021DISCHARGE (KAF)1040117788
13BELM8CLARK FORK-BELOW MISSOULA04-12-2021DISCHARGE (KAF)2176259184
14STRM8ST. REGIS-NEAR ST. REGIS04-12-2021DISCHARGE (KAF)19223582
15SRGM8CLARK FORK-AT ST REGIS04-12-2021DISCHARGE (KAF)2742346179
16KERM8FLATHEAD-SELI’Š KSANKA QLISPE’ DAM04-12-2021INFLOW (KAF)3739508274
17NOXM8CLARK FORK-NOXON RAPIDS DAM04-12-2021INFLOW (KAF)6069860471
18CABI1CLARK FORK-CABINET GORGE DAM04-12-2021INFLOW (KAF)6684911773
19PRTI1PRIEST-NEAR PRIEST RIVER04-12-2021DISCHARGE (KAF)49873468
20ALFW1PEND OREILLE-ALBENI FALLS DAM04-12-2021INFLOW (KAF)76071058972
21HOPI1PEND OREILLE-PEND OREILLE LAKE NR HOPE04-12-2021LAKE ELEVATION (FT)MMM
22COEI1COEUR D ALENE-COEUR D ALENE LAKE04-12-2021INFLOW (KAF)1756226478
23SPOW1SPOKANE-AT SPOKANE04-12-2021DISCHARGE (KAF)1694MM
24LLKW1SPOKANE-AT LONGLAKE04-12-2021INFLOW (KAF)1879277268
25SATI1ST MARIES-NEAR SANTA04-12-2021DISCHARGE (KAF)8011371
26SJMI1ST JOE-AT ST MARIES04-12-2021STAGE (FT)MMM
27CIBW1COLUMBIA-AT INTL BOUNDARY04-12-2021DISCHARGE (KAF)26985MM
28LAUW1KETTLE-AT LAURIER04-12-2021DISCHARGE (KAF)1316167978
29GCDW1COLUMBIA-GRAND COULEE DAM04-12-2021INFLOW (KAF)302374158673
30CHJW1COLUMBIA-CHIEF JOSEPH DAM04-12-2021INFLOW (KAF)276683142288
31TONW1OKANOGAN-NEAR TONASKET04-12-2021DISCHARGE (KAF)16021411114
32PATW1METHOW-NEAR PATEROS04-12-2021DISCHARGE (KAF)921821112
33WELW1COLUMBIA-WELLS DAM04-12-2021INFLOW (KAF)301923403489
34CHDW1CHELAN-LAKE CHELAN DAM04-12-2021INFLOW (KAF)1067973110
35RRHW1COLUMBIA-ROCKY REACH DAM04-12-2021INFLOW (KAF)310533457390
36ARDW1ENTIAT-NEAR ARDENVOIR04-12-2021DISCHARGE (KAF)219193113
37PESW1WENATCHEE-AT PESHASTIN04-12-2021DISCHARGE (KAF)14841376108
38WANW1COLUMBIA-WANAPUM DAM04-12-2021INFLOW (KAF)325664138279
39PRWW1COLUMBIA-PRIEST RAPIDS DAM04-12-2021INFLOW (KAF)325624220277
40KEDW1YAKIMA-KEECHELUS LAKE04-12-2021INFLOW (KAF)127102124
41KADW1KACHESS-KACHESS DAM04-12-2021INFLOW (KAF)11295118
42EASW1YAKIMA-AT EASTON04-12-2021DISCHARGE (KAF)10993117
43CLUW1CLE ELUM-CLE ELUM LAKE04-12-2021INFLOW (KAF)457361127
44TNAW1TEANAWAY-BELOW FORKS04-12-2021DISCHARGE (KAF)137100138
45UMTW1YAKIMA-AT UMTANUM04-12-2021DISCHARGE (KAF)847791107
46BUDW1BUMPING-BUMPING LAKE DAM04-12-2021INFLOW (KAF)117109108
47CLFW1NACHES-NEAR CLIFFDEL04-12-2021DISCHARGE (KAF)404338120
48RILW1TIETON-RIMROCK LAKE NEAR RIMROCK04-12-2021INFLOW (KAF)208185113
49NACW1NACHES-NEAR NACHES04-12-2021DISCHARGE (KAF)563469120
50PARW1YAKIMA-NEAR PARKER04-12-2021DISCHARGE (KAF)525422124
51KIOW1YAKIMA-AT KIONA04-12-2021DISCHARGE (KAF)796780102
52IPDI1HENRYS FORK-ISLAND PARK DAM04-12-2021INFLOW (KAF)15120773
53CHEI1FALL RIVER-NEAR CHESTER04-12-2021DISCHARGE (KAF)24530879
54ANTI1HENRYS FORK-AT ST. ANTHONY04-12-2021DISCHARGE (KAF)54560989
55TEAI1TETON-NEAR ST. ANTHONY04-12-2021DISCHARGE (KAF)28233883
56REXI1HENRYS FORK-AT REXBURG04-12-2021DISCHARGE (KAF)55370179
57JLKW4SNAKE-JACKSON LAKE AT DAM04-12-2021INFLOW (KAF)51775369
58JKSW4SNAKE-NEAR JACKSON04-12-2021DISCHARGE (KAF)1149158173
59ALPW4SNAKE-NEAR ALPINE04-12-2021DISCHARGE (KAF)1395204368
60PLDI1SF SNAKE-PALISADES DAM04-12-2021INFLOW (KAF)1983293268
61HEII1SNAKE-NEAR HEISE04-12-2021DISCHARGE (KAF)2848302294
62RIDI1WILLOW CREEK-RIRIE DAM04-12-2021INFLOW (KAF)193948
63SIFI1SNAKE-AB EAGLE ROCK NR IDAHO FALLS04-12-2021DISCHARGE (KAF)2057245984
64SHYI1SNAKE-NEAR SHELLEY04-12-2021DISCHARGE (KAF)1808225880
65SNAI1SNAKE-AT BLACKFOOT04-12-2021DISCHARGE (KAF)1291177673
66BFTI1SNAKE-NEAR BLACKFOOT04-12-2021DISCHARGE (KAF)1242167274
67PIHI1PORTNEUF-AT POCATELLO04-12-2021DISCHARGE (KAF)316945
68AFRI1SNAKE-AMERICAN FALLS RESERVOIR04-12-2021INFLOW (KAF)1742229676
69MILI1SNAKE-AT MILNER04-12-2021DISCHARGE (KAF)M321M
70HOTI1BRUNEAU-NEAR HOT SPRINGS04-12-2021DISCHARGE (KAF)10416663
71SWAI1SNAKE-BELOW SWAN FALLS04-12-2021DISCHARGE (KAF)1502227866
72HWRI1BIG LOST-AT HOWELL RANCH NEAR CHILLY04-12-2021DISCHARGE (KAF)4215826
73MACI1BIG LOST-MACKAY RESERVOIR NEAR MACKAY04-12-2021INFLOW (KAF)3815824
74HALI1BIG WOOD-AT HAILEY04-12-2021DISCHARGE (KAF)8522438
75MAGI1BIG WOOD-MAGIC DAM04-12-2021INFLOW (KAF)4121719
76LWRI1LITTLE WOOD-LITTLE WOOD DAM04-12-2021INFLOW (KAF)227131
77OWYO3OWYHEE-OWYHEE DAM04-12-2021INFLOW (KAF)7424231
78ARAI1SF BOISE-ANDERSON RANCH DAM04-12-2021INFLOW (KAF)24148050
79LUCI1BOISE-LUCKY PEAK DAM04-12-2021INFLOW (KAF)1032MM
80BIGI1BOISE-AT GLENWOOD BRIDGE04-12-2021DISCHARGE (KAF)38144685
81PARI1BOISE-NEAR PARMA04-12-2021DISCHARGE (KAF)35040287
82WRMO3MALHEUR-WARM SPRINGS DAM04-12-2021INFLOW (KAF)202773
83BERO3MALHEUR-AGENCY VALLEY DAM04-12-2021INFLOW (KAF)203461
84BULO3BULLY CREEK-BULLY CREEK DAM04-12-2021INFLOW (KAF)1254
85CSDI1NF PAYETTE-CASCADE DAM04-12-2021INFLOW (KAF)30345666
86DEDI1DEADWOOD-NEAR LOWMAN04-12-2021INFLOW (KAF)7912862
87EMMI1PAYETTE-NEAR EMMETT04-12-2021DISCHARGE (KAF)622114055
88WSRI1WEISER-NEAR WEISER04-12-2021DISCHARGE (KAF)22032069
89WEII1SNAKE-AT WEISER04-12-2021DISCHARGE (KAF)2879451564
90BRNI1SNAKE-BROWNLEE DAM04-12-2021INFLOW (KAF)3208486866
91WHBI1SALMON-AT WHITEBIRD04-12-2021DISCHARGE (KAF)3280554759
92TRYO3GRANDE RONDE-TROY04-12-2021DISCHARGE (KAF)975110488
93ANAW1SNAKE-NEAR ANATONE04-12-2021DISCHARGE (KAF)72261240658
94ORFI1CLEARWATER-AT OROFINO04-12-2021DISCHARGE (KAF)3581427884
95DWRI1NF CLEARWATER-DWORSHAK DAM04-12-2021INFLOW (KAF)1987245781
96SPDI1CLEARWATER-AT SPALDING04-12-2021DISCHARGE (KAF)4890641476
97LGDW1SNAKE-LOWER GRANITE DAM04-12-2021INFLOW (KAF)121161883264
98LGSW1SNAKE-LITTLE GOOSE DAM04-12-2021INFLOW (KAF)120611884564
99LMNW1SNAKE-LOWER MONUMENTAL DAM04-12-2021INFLOW (KAF)121751890964
100IHDW1SNAKE-ICE HARBOR DAM04-12-2021INFLOW (KAF)121781878965
101TCHW1WALLA WALLA-NEAR TOUCHET04-12-2021DISCHARGE (KAF)888999
102MCDW1COLUMBIA-MCNARY DAM04-12-2021INFLOW (KAF)456036289373
103GIBO3UMATILLA-NEAR GIBBON04-12-2021DISCHARGE (KAF)8157143
104PDTO3UMATILLA-AT PENDLETON04-12-2021DISCHARGE (KAF)157106148
105MYKO3MCKAY CREEK-NEAR PILOT ROCK04-12-2021DISCHARGE (KAF)111576
106UMAO3UMATILLA-NEAR UMATILLA04-12-2021DISCHARGE (KAF)12658218
107MONO3NF JOHN DAY-AT MONUMENT04-12-2021DISCHARGE (KAF)41047287
108SERO3JOHN DAY-AT SERVICE CK04-12-2021DISCHARGE (KAF)51566078
109JDAO3COLUMBIA-JOHN DAY DAM04-12-2021INFLOW (KAF)471896472673
110MODO3DESCHUTES-AT MOODY NR BIGGS04-12-2021DISCHARGE (KAF)1170130590
111TDAO3COLUMBIA-THE DALLES DAM04-12-2021INFLOW (KAF)473565803582
112PITW1KLICKITAT-NEAR PITT04-12-2021DISCHARGE (KAF)39843891
113HODO3HOOD-NEAR TUCKER BRIDGE04-12-2021DISCHARGE (KAF)197197100
114UNDW1WHITE SALMON-NEAR UNDERWOOD04-12-2021DISCHARGE (KAF)25629686
115BONO3COLUMBIA-BONNEVILLE DAM04-12-2021INFLOW (KAF)482155984381